| time (UTC) | temp F | wind direction | speed MPH | gust MPH | rain 1hr in | rain 24hr in | rain mn in | humidity % | barometer mb |
| 20260903103555 | 68 | 244 | 0.0 | 2.0 | 0.00 | 1.09 | 0.00 | 94 | 1013.0 |
| 20260903103100 | 68 | 0 | 0.0 | 1.0 | 0.00 | 1.09 | 0.00 | 94 | 1012.9 |
| 20260903102554 | 68 | 0 | 0.0 | 1.0 | 0.00 | 1.09 | 0.00 | 94 | 1013.0 |
| 20260903102053 | 68 | 268 | 0.0 | 1.0 | 0.00 | 1.09 | 0.00 | 94 | 1013.1 |
| 20260903101600 | 68 | 0 | 0.0 | 1.0 | 0.00 | 1.09 | 0.00 | 94 | 1012.9 |
| 20260903101053 | 68 | 0 | 0.0 | 0.0 | 0.00 | 1.09 | 0.00 | 94 | 1013.0 |
| 20260903100554 | 68 | 0 | 0.0 | 0.0 | 0.00 | 1.09 | 0.00 | 94 | 1013.0 |
| 20260903100106 | 68 | 243 | 0.0 | 0.0 | 0.00 | 1.09 | 0.00 | 94 | 1012.9 |
| 20260903095553 | 68 | 0 | 0.0 | 0.0 | 0.00 | 1.09 | 0.00 | 94 | 1012.9 |
| 20260903095054 | 68 | 0 | 0.0 | 0.0 | 0.00 | 1.09 | 0.00 | 94 | 1012.9 |
| 20260903094602 | 68 | 0 | 0.0 | 0.0 | 0.00 | 1.09 | 0.00 | 94 | 1012.9 |
| 20260903094054 | 68 | 0 | 0.0 | 0.0 | 0.00 | 1.09 | 0.00 | 94 | 1012.9 |
| 20260903093554 | 68 | 0 | 0.0 | 0.0 | 0.00 | 1.09 | 0.00 | 94 | 1012.9 |
| 20260903093104 | 68 | 0 | 0.0 | 0.0 | 0.00 | 1.09 | 0.00 | 94 | 1013.0 |
| 20260903092554 | 68 | 0 | 0.0 | 0.0 | 0.00 | 1.09 | 0.00 | 94 | 1013.0 |
| 20260903092054 | 68 | 0 | 0.0 | 0.0 | 0.00 | 1.09 | 0.00 | 94 | 1013.0 |
| 20260903091605 | 68 | 0 | 0.0 | 0.0 | 0.00 | 1.09 | 0.00 | 94 | 1013.0 |
| 20260903091054 | 68 | 0 | 0.0 | 1.0 | 0.00 | 1.09 | 0.00 | 94 | 1013.1 |
| 20260903090554 | 68 | 0 | 0.0 | 1.0 | 0.00 | 1.09 | 0.00 | 94 | 1013.1 |
| 20260903085554 | 68 | 0 | 0.0 | 2.0 | 0.00 | 1.09 | 0.00 | 94 | 1013.1 |
| 20260903085053 | 68 | 0 | 0.0 | 2.0 | 0.00 | 1.09 | 0.00 | 94 | 1012.9 |
| 20260903084603 | 68 | 0 | 0.0 | 1.0 | 0.00 | 1.09 | 0.00 | 94 | 1012.8 |
| 20260903084054 | 68 | 0 | 0.0 | 0.0 | 0.00 | 1.09 | 0.00 | 94 | 1012.8 |
| 20260903083557 | 68 | 0 | 0.0 | 0.0 | 0.00 | 1.09 | 0.00 | 94 | 1012.7 |
| 20260903083106 | 68 | 0 | 0.0 | 1.0 | 0.00 | 1.09 | 0.00 | 94 | 1012.8 |
| 20260903082554 | 68 | 0 | 0.0 | 1.0 | 0.00 | 1.09 | 0.00 | 94 | 1013.0 |
| 20260903082053 | 68 | 0 | 0.0 | 1.0 | 0.00 | 1.09 | 0.00 | 94 | 1012.8 |
| 20260903081602 | 68 | 0 | 0.0 | 0.0 | 0.00 | 1.09 | 0.00 | 94 | 1012.7 |
| 20260903081055 | 68 | 0 | 0.0 | 0.0 | 0.00 | 1.09 | 0.00 | 94 | 1012.8 |
| 20260903080556 | 68 | 0 | 0.0 | 0.0 | 0.00 | 1.09 | 0.00 | 94 | 1012.8 |
| 20260903080105 | 68 | 0 | 0.0 | 1.0 | 0.00 | 1.09 | 0.00 | 94 | 1012.9 |
| 20260903075554 | 68 | 0 | 0.0 | 1.0 | 0.00 | 1.09 | 0.00 | 94 | 1012.9 |
| 20260903075053 | 68 | 0 | 0.0 | 1.0 | 0.00 | 1.09 | 0.00 | 94 | 1012.9 |
| 20260903074632 | 68 | 0 | 0.0 | 1.0 | 0.00 | 1.09 | 0.00 | 94 | 1012.9 |
| 20260903074053 | 68 | 0 | 0.0 | 2.0 | 0.00 | 1.09 | 0.00 | 94 | 1012.9 |
| 20260903073554 | 68 | 0 | 0.0 | 2.0 | 0.00 | 1.09 | 0.00 | 94 | 1012.9 |
| 20260903073116 | 68 | 0 | 0.0 | 2.0 | 0.00 | 1.09 | 0.00 | 94 | 1012.9 |
| 20260903072556 | 68 | 0 | 0.0 | 2.0 | 0.00 | 1.09 | 0.00 | 94 | 1013.1 |
| 20260903072054 | 68 | 0 | 0.0 | 0.0 | 0.00 | 1.09 | 0.00 | 94 | 1013.1 |
| 20260903071605 | 68 | 0 | 0.0 | 0.0 | 0.00 | 1.09 | 0.00 | 94 | 1013.1 |
| 20260903071053 | 68 | 0 | 0.0 | 3.0 | 0.00 | 1.09 | 0.00 | 94 | 1013.2 |
| 20260903070556 | 68 | 0 | 0.0 | 4.0 | 0.00 | 1.09 | 0.00 | 94 | 1013.2 |
| 20260903070115 | 68 | 254 | 0.0 | 4.0 | 0.00 | 1.09 | 0.00 | 95 | 1013.4 |
| 20260903065554 | 68 | 0 | 1.0 | 4.0 | 0.00 | 1.09 | 0.00 | 95 | 1013.3 |
| 20260903065054 | 68 | 229 | 1.0 | 2.0 | 0.00 | 1.09 | 0.00 | 95 | 1013.3 |
| 20260903064603 | 68 | 0 | 0.0 | 2.0 | 0.00 | 1.09 | 0.00 | 95 | 1013.4 |
| 20260903064053 | 68 | 290 | 0.0 | 2.0 | 0.00 | 1.09 | 0.00 | 95 | 1013.4 |
| 20260903063555 | 67 | 250 | 0.0 | 2.0 | 0.00 | 1.09 | 0.00 | 95 | 1013.2 |
| 20260903063110 | 67 | 0 | 0.0 | 1.0 | 0.00 | 1.09 | 0.00 | 95 | 1013.1 |
| 20260903062554 | 67 | 0 | 0.0 | 0.0 | 0.00 | 1.09 | 0.00 | 95 | 1013.1 |
| 20260903062054 | 67 | 0 | 0.0 | 0.0 | 0.00 | 1.09 | 0.00 | 95 | 1013.1 |
| 20260903061610 | 67 | 0 | 0.0 | 0.0 | 0.00 | 1.09 | 0.00 | 95 | 1013.1 |
| 20260903061056 | 67 | 0 | 0.0 | 0.0 | 0.00 | 1.09 | 0.00 | 94 | 1013.2 |
| 20260903060553 | 67 | 0 | 0.0 | 0.0 | 0.00 | 1.09 | 0.00 | 94 | 1013.1 |
| 20260903060103 | 67 | 0 | 0.0 | 0.0 | 0.00 | 1.09 | 0.00 | 94 | 1013.2 |
| 20260903055554 | 67 | 0 | 0.0 | 0.0 | 0.00 | 1.09 | 0.00 | 94 | 1013.2 |
| 20260903055054 | 67 | 0 | 0.0 | 0.0 | 0.00 | 1.09 | 0.00 | 95 | 1013.1 |
| 20260903054606 | 67 | 0 | 0.0 | 0.0 | 0.00 | 1.09 | 0.00 | 95 | 1013.1 |
| 20260903054055 | 67 | 0 | 0.0 | 0.0 | 0.00 | 1.09 | 0.00 | 94 | 1013.1 |
| 20260903053554 | 67 | 0 | 0.0 | 0.0 | 0.00 | 1.09 | 0.00 | 95 | 1013.0 |
| 20260903053100 | 67 | 0 | 0.0 | 0.0 | 0.00 | 1.09 | 0.00 | 95 | 1013.1 |
| 20260903052558 | 67 | 0 | 0.0 | 0.0 | 0.00 | 1.09 | 0.00 | 94 | 1013.1 |
| 20260903052056 | 67 | 0 | 0.0 | 0.0 | 0.00 | 1.09 | 0.00 | 94 | 1013.2 |
| 20260903051604 | 67 | 0 | 0.0 | 0.0 | 0.00 | 1.09 | 0.00 | 94 | 1013.0 |
| 20260903051057 | 67 | 0 | 0.0 | 0.0 | 0.00 | 1.09 | 0.00 | 94 | 1013.0 |
| 20260903050556 | 67 | 0 | 0.0 | 0.0 | 0.00 | 1.09 | 0.00 | 94 | 1013.1 |
| 20260903050106 | 67 | 0 | 0.0 | 0.0 | 0.00 | 1.09 | 0.00 | 94 | 1012.9 |
| 20260903045603 | 67 | 0 | 0.0 | 0.0 | 0.00 | 1.09 | 0.00 | 94 | 1012.9 |
| 20260903045056 | 68 | 0 | 0.0 | 0.0 | 0.00 | 1.09 | 0.00 | 94 | 1012.8 |
| 20260903044602 | 68 | 0 | 0.0 | 0.0 | 0.00 | 1.09 | 0.00 | 94 | 1012.9 |
| 20260903044056 | 68 | 0 | 0.0 | 0.0 | 0.00 | 1.09 | 0.00 | 94 | 1012.8 |
| 20260903043556 | 68 | 0 | 0.0 | 0.0 | 0.00 | 1.09 | 0.00 | 94 | 1012.8 |
| 20260903043101 | 68 | 0 | 0.0 | 0.0 | 0.00 | 1.09 | 0.00 | 94 | 1012.8 |
| 20260903042555 | 68 | 0 | 0.0 | 0.0 | 0.00 | 1.09 | 0.00 | 94 | 1012.7 |
| 20260903042055 | 68 | 0 | 0.0 | 0.0 | 0.00 | 1.09 | 0.00 | 94 | 1012.7 |
| 20260903041613 | 68 | 0 | 0.0 | 1.0 | 0.00 | 1.09 | 0.00 | 94 | 1013.0 |
| 20260903041056 | 68 | 0 | 0.0 | 1.0 | 0.00 | 1.09 | 0.00 | 94 | 1013.0 |
| 20260903040600 | 68 | 0 | 0.0 | 2.0 | 0.00 | 1.09 | 0.00 | 94 | 1013.1 |
| 20260903040105 | 68 | 0 | 0.0 | 2.0 | 0.00 | 1.09 | 0.00 | 94 | 1013.1 |
| 20260903035601 | 68 | 0 | 0.0 | 4.0 | 0.00 | 1.09 | 1.09 | 94 | 1013.2 |
| 20260903035056 | 68 | 233 | 1.0 | 4.0 | 0.00 | 1.09 | 1.09 | 94 | 1013.3 |
| 20260903034602 | 69 | 230 | 0.0 | 3.0 | 0.00 | 1.09 | 1.09 | 94 | 1013.3 |
| 20260903034100 | 68 | 0 | 0.0 | 5.0 | 0.00 | 1.09 | 1.09 | 94 | 1013.4 |
| 20260903033556 | 69 | 233 | 1.0 | 5.0 | 0.00 | 1.09 | 1.09 | 94 | 1013.4 |
| 20260903033106 | 69 | 226 | 2.0 | 4.0 | 0.00 | 1.09 | 1.09 | 94 | 1013.2 |
| 20260903032556 | 69 | 225 | 1.0 | 4.0 | 0.00 | 1.09 | 1.09 | 94 | 1013.2 |
| 20260903032057 | 69 | 214 | 1.0 | 4.0 | 0.00 | 1.09 | 1.09 | 94 | 1013.1 |
| 20260903031611 | 69 | 259 | 2.0 | 5.0 | 0.00 | 1.09 | 1.09 | 94 | 1012.9 |
| 20260903031100 | 69 | 247 | 0.0 | 5.0 | 0.00 | 1.09 | 1.09 | 94 | 1013.1 |
| 20260903030556 | 69 | 282 | 2.0 | 5.0 | 0.00 | 1.09 | 1.09 | 94 | 1013.0 |
| 20260903025555 | 69 | 244 | 4.0 | 10.0 | 0.01 | 1.09 | 1.09 | 94 | 1012.7 |
| 20260903025057 | 69 | 236 | 2.0 | 9.0 | 0.01 | 1.09 | 1.09 | 94 | 1012.2 |
| 20260903024603 | 69 | 224 | 1.0 | 9.0 | 0.01 | 1.09 | 1.09 | 93 | 1012.2 |
| 20260903024056 | 69 | 243 | 2.0 | 7.0 | 0.02 | 1.09 | 1.09 | 93 | 1012.3 |
| 20260903023553 | 69 | 214 | 1.0 | 8.0 | 0.03 | 1.09 | 1.09 | 93 | 1012.5 |
| 20260903023101 | 70 | 202 | 1.0 | 8.0 | 0.06 | 1.09 | 1.09 | 93 | 1012.4 |
| 20260903022553 | 70 | 347 | 1.0 | 9.0 | 0.07 | 1.09 | 1.09 | 93 | 1012.5 |
| 20260903022053 | 71 | 200 | 2.0 | 9.0 | 0.09 | 1.09 | 1.09 | 93 | 1012.3 |
| 20260903021611 | 71 | 83 | 1.0 | 9.0 | 0.11 | 1.09 | 1.09 | 93 | 1012.2 |
| 20260903021053 | 72 | 143 | 0.0 | 6.0 | 0.12 | 1.09 | 1.09 | 93 | 1012.3 |
| 20260903020553 | 72 | 0 | 0.0 | 2.0 | 0.12 | 1.09 | 1.09 | 93 | 1012.3 |
| 20260903015554 | 73 | 0 | 1.0 | 4.0 | 0.13 | 1.08 | 1.08 | 94 | 1013.5 |
| 20260903015059 | 73 | 259 | 0.0 | 2.0 | 0.13 | 1.08 | 1.08 | 93 | 1013.1 |
| 20260903014624 | 73 | 0 | 0.0 | 4.0 | 0.14 | 1.08 | 1.08 | 93 | 1012.7 |
| 20260903014054 | 73 | 0 | 0.0 | 5.0 | 0.14 | 1.07 | 1.07 | 93 | 1012.9 |
| 20260903013557 | 73 | 120 | 0.0 | 5.0 | 0.14 | 1.05 | 1.05 | 93 | 1013.2 |
| 20260903013106 | 73 | 197 | 0.0 | 4.0 | 0.12 | 1.03 | 1.03 | 93 | 1013.6 |
| 20260903012553 | 74 | 0 | 1.0 | 2.0 | 0.11 | 1.01 | 1.01 | 93 | 1013.8 |
| 20260903012054 | 74 | 227 | 0.0 | 0.0 | 0.10 | 1.00 | 1.00 | 93 | 1013.7 |
| 20260903011621 | 74 | 0 | 0.0 | 0.0 | 0.08 | 0.98 | 0.98 | 93 | 1013.1 |
| 20260903011054 | 74 | 0 | 0.0 | 0.0 | 0.07 | 0.97 | 0.97 | 92 | 1013.2 |
| 20260903010554 | 74 | 0 | 0.0 | 0.0 | 0.07 | 0.97 | 0.97 | 92 | 1013.4 |
| 20260903010112 | 74 | 0 | 0.0 | 0.0 | 0.05 | 0.95 | 0.95 | 92 | 1013.2 |
| 20260903005553 | 74 | 0 | 0.0 | 0.0 | 0.05 | 0.95 | 0.95 | 91 | 1013.4 |
| 20260903005053 | 74 | 0 | 0.0 | 0.0 | 0.05 | 0.95 | 0.95 | 91 | 1013.9 |
| 20260903004607 | 74 | 0 | 0.0 | 0.0 | 0.04 | 0.94 | 0.94 | 91 | 1014.4 |
| 20260903004055 | 75 | 0 | 0.0 | 0.0 | 0.03 | 0.93 | 0.93 | 90 | 1014.3 |
| 20260903003554 | 75 | 0 | 0.0 | 0.0 | 0.02 | 0.92 | 0.92 | 90 | 1014.5 |
| 20260903003129 | 75 | 0 | 0.0 | 0.0 | 0.01 | 0.91 | 0.91 | 89 | 1014.0 |
| 20260903002554 | 75 | 0 | 0.0 | 0.0 | 0.00 | 0.90 | 0.90 | 89 | 1013.7 |
| 20260903002057 | 75 | 0 | 0.0 | 0.0 | 0.00 | 0.90 | 0.90 | 89 | 1013.3 |
| 20260903001605 | 75 | 0 | 0.0 | 0.0 | 0.00 | 0.90 | 0.90 | 89 | 1013.5 |
| 20260903001054 | 75 | 0 | 0.0 | 0.0 | 0.00 | 0.90 | 0.90 | 89 | 1013.6 |
| 20260903000557 | 75 | 0 | 0.0 | 2.0 | 0.00 | 0.90 | 0.90 | 88 | 1013.6 |
| 20260903000109 | 75 | 0 | 0.0 | 2.0 | 0.00 | 0.90 | 0.90 | 88 | 1013.3 |
| 20260902235555 | 75 | 0 | 1.0 | 2.0 | 0.00 | 0.90 | 0.90 | 88 | 1013.5 |
| 20260902235054 | 75 | 0 | 0.0 | 0.0 | 0.00 | 0.90 | 0.90 | 88 | 1013.0 |
| 20260902234610 | 76 | 0 | 0.0 | 0.0 | 0.00 | 0.90 | 0.90 | 88 | 1013.0 |
| 20260902234056 | 76 | 0 | 0.0 | 0.0 | 0.00 | 0.90 | 0.90 | 87 | 1012.8 |
| 20260902233558 | 76 | 0 | 0.0 | 0.0 | 0.00 | 0.90 | 0.90 | 87 | 1012.4 |
| 20260902233103 | 76 | 0 | 0.0 | 0.0 | 0.00 | 0.90 | 0.90 | 87 | 1012.2 |
| 20260902232554 | 76 | 0 | 0.0 | 2.0 | 0.00 | 0.90 | 0.90 | 86 | 1012.4 |
| 20260902232058 | 77 | 0 | 0.0 | 2.0 | 0.00 | 0.90 | 0.90 | 86 | 1012.5 |
| 20260902231606 | 77 | 0 | 0.0 | 3.0 | 0.00 | 0.90 | 0.90 | 86 | 1012.6 |
| 20260902231054 | 77 | 0 | 0.0 | 3.0 | 0.00 | 0.90 | 0.90 | 86 | 1012.8 |
| 20260902230553 | 77 | 233 | 0.0 | 3.0 | 0.00 | 0.90 | 0.90 | 86 | 1013.1 |
| 20260902230107 | 77 | 155 | 0.0 | 3.0 | 0.00 | 0.90 | 0.90 | 86 | 1013.0 |
| 20260902225554 | 78 | 0 | 0.0 | 1.0 | 0.00 | 0.90 | 0.90 | 85 | 1012.8 |
| 20260902225057 | 78 | 0 | 0.0 | 1.0 | 0.00 | 0.90 | 0.90 | 85 | 1012.5 |
| 20260902224620 | 78 | 0 | 0.0 | 6.0 | 0.00 | 0.90 | 0.90 | 84 | 1012.3 |
| 20260902224054 | 78 | 0 | 0.0 | 6.0 | 0.00 | 0.90 | 0.90 | 84 | 1012.2 |
| 20260902223554 | 79 | 113 | 0.0 | 1.0 | 0.00 | 0.90 | 0.90 | 84 | 1012.1 |
| 20260902223101 | 79 | 0 | 0.0 | 2.0 | 0.00 | 0.90 | 0.90 | 83 | 1012.0 |
| 20260902222554 | 79 | 0 | 0.0 | 3.0 | 0.00 | 0.90 | 0.90 | 83 | 1012.2 |
| 20260902222053 | 79 | 0 | 0.0 | 3.0 | 0.00 | 0.90 | 0.90 | 83 | 1012.2 |
| 20260902221601 | 79 | 0 | 0.0 | 1.0 | 0.00 | 0.90 | 0.90 | 83 | 1012.2 |
| 20260902221055 | 79 | 0 | 0.0 | 5.0 | 0.00 | 0.90 | 0.90 | 83 | 1012.2 |
| 20260902220554 | 80 | 0 | 0.0 | 5.0 | 0.00 | 0.90 | 0.90 | 83 | 1012.2 |
| 20260902220116 | 80 | 0 | 0.0 | 0.0 | 0.00 | 0.90 | 0.90 | 83 | 1012.0 |
| 20260902215554 | 80 | 0 | 0.0 | 0.0 | 0.00 | 0.90 | 0.90 | 83 | 1012.0 |
| 20260902215053 | 80 | 0 | 0.0 | 0.0 | 0.00 | 0.90 | 0.90 | 83 | 1012.3 |
| 20260902214602 | 80 | 0 | 0.0 | 0.0 | 0.00 | 0.90 | 0.90 | 82 | 1012.5 |
| 20260902214056 | 81 | 0 | 0.0 | 0.0 | 0.00 | 0.90 | 0.90 | 82 | 1012.8 |
| 20260902213554 | 81 | 0 | 0.0 | 0.0 | 0.00 | 0.90 | 0.90 | 82 | 1013.3 |
| 20260902213106 | 82 | 0 | 0.0 | 0.0 | 0.00 | 0.90 | 0.90 | 82 | 1013.7 |
| 20260902212554 | 82 | 0 | 0.0 | 0.0 | 0.00 | 0.90 | 0.90 | 82 | 1013.9 |
| 20260902212054 | 82 | 0 | 0.0 | 0.0 | 0.00 | 0.90 | 0.90 | 81 | 1014.1 |
| 20260902211603 | 82 | 0 | 0.0 | 0.0 | 0.00 | 0.90 | 0.90 | 81 | 1014.3 |
| 20260902211057 | 82 | 0 | 0.0 | 0.0 | 0.00 | 0.90 | 0.90 | 80 | 1014.3 |
| 20260902210555 | 82 | 0 | 0.0 | 0.0 | 0.00 | 0.90 | 0.90 | 78 | 1014.5 |
| 20260902210059 | 82 | 0 | 0.0 | 0.0 | 0.00 | 0.90 | 0.90 | 78 | 1014.7 |
| 20260902205553 | 82 | 0 | 0.0 | 3.0 | 0.00 | 0.90 | 0.90 | 78 | 1014.8 |
| 20260902205054 | 82 | 0 | 0.0 | 4.0 | 0.00 | 0.90 | 0.90 | 77 | 1014.9 |
| 20260902204605 | 83 | 0 | 1.0 | 4.0 | 0.00 | 0.90 | 0.90 | 77 | 1014.8 |
| 20260902204053 | 83 | 298 | 0.0 | 4.0 | 0.00 | 0.90 | 0.90 | 75 | 1014.7 |
| 20260902203554 | 84 | 235 | 0.0 | 4.0 | 0.00 | 0.90 | 0.90 | 74 | 1014.8 |
| 20260902203118 | 85 | 118 | 1.0 | 5.0 | 0.00 | 0.90 | 0.90 | 72 | 1014.8 |
| 20260902202554 | 85 | 0 | 1.0 | 5.0 | 0.00 | 0.90 | 0.90 | 73 | 1014.6 |
| 20260902202054 | 85 | 128 | 1.0 | 4.0 | 0.00 | 0.90 | 0.90 | 74 | 1014.3 |
| 20260902201604 | 85 | 0 | 0.0 | 4.0 | 0.00 | 0.90 | 0.90 | 73 | 1014.5 |
| 20260902201056 | 85 | 231 | 1.0 | 5.0 | 0.00 | 0.90 | 0.90 | 74 | 1014.5 |
| 20260902200554 | 85 | 127 | 0.0 | 5.0 | 0.00 | 0.90 | 0.90 | 72 | 1014.5 |
| 20260902200106 | 85 | 233 | 1.0 | 5.0 | 0.00 | 0.90 | 0.90 | 71 | 1014.4 |
| 20260902195606 | 85 | 107 | 0.0 | 4.0 | 0.00 | 0.90 | 0.90 | 73 | 1014.4 |
| 20260902195057 | 85 | 235 | 0.0 | 4.0 | 0.00 | 0.90 | 0.90 | 74 | 1014.2 |
| 20260902194605 | 84 | 0 | 0.0 | 9.0 | 0.00 | 0.90 | 0.90 | 74 | 1014.0 |
| 20260902194056 | 84 | 210 | 2.0 | 9.0 | 0.00 | 0.90 | 0.90 | 73 | 1014.1 |
| 20260902193559 | 84 | 218 | 4.0 | 8.0 | 0.00 | 0.90 | 0.90 | 72 | 1013.9 |
| 20260902193103 | 85 | 236 | 2.0 | 6.0 | 0.00 | 0.90 | 0.90 | 73 | 1014.1 |
| 20260902192558 | 85 | 103 | 0.0 | 6.0 | 0.00 | 0.90 | 0.90 | 74 | 1014.2 |
| 20260902192053 | 84 | 164 | 3.0 | 6.0 | 0.00 | 0.90 | 0.90 | 74 | 1014.2 |
| 20260902191606 | 84 | 290 | 0.0 | 6.0 | 0.00 | 0.90 | 0.90 | 72 | 1014.2 |
| 20260902191055 | 84 | 0 | 0.0 | 6.0 | 0.00 | 0.90 | 0.90 | 72 | 1014.1 |
| 20260902190555 | 84 | 153 | 1.0 | 4.0 | 0.00 | 0.90 | 0.90 | 72 | 1014.2 |
| 20260902190114 | 85 | 100 | 1.0 | 7.0 | 0.00 | 0.90 | 0.90 | 73 | 1014.2 |
| 20260902185558 | 85 | 217 | 1.0 | 8.0 | 0.00 | 0.90 | 0.90 | 72 | 1014.5 |
| 20260902185057 | 85 | 231 | 0.0 | 8.0 | 0.00 | 0.90 | 0.90 | 74 | 1014.6 |
| 20260902184559 | 85 | 0 | 1.0 | 4.0 | 0.00 | 0.90 | 0.90 | 74 | 1014.5 |
| 20260902184056 | 84 | 96 | 1.0 | 5.0 | 0.00 | 0.90 | 0.90 | 73 | 1014.5 |
| 20260902183554 | 85 | 191 | 1.0 | 6.0 | 0.00 | 0.90 | 0.90 | 75 | 1014.6 |
| 20260902183104 | 84 | 293 | 0.0 | 6.0 | 0.00 | 0.90 | 0.90 | 76 | 1014.8 |
| 20260902182556 | 84 | 289 | 2.0 | 10.0 | 0.00 | 0.90 | 0.90 | 74 | 1014.9 |
| 20260902182056 | 84 | 262 | 2.0 | 10.0 | 0.00 | 0.90 | 0.90 | 74 | 1014.9 |
| 20260902181605 | 84 | 129 | 4.0 | 10.0 | 0.00 | 0.90 | 0.90 | 74 | 1015.1 |
| 20260902181055 | 84 | 124 | 2.0 | 7.0 | 0.00 | 0.90 | 0.90 | 74 | 1015.2 |
| 20260902180554 | 84 | 263 | 0.0 | 6.0 | 0.00 | 0.90 | 0.90 | 75 | 1015.2 |
| 20260902175556 | 83 | 0 | 0.0 | 5.0 | 0.00 | 0.90 | 0.90 | 76 | 1015.1 |
| 20260902175054 | 82 | 224 | 1.0 | 5.0 | 0.00 | 0.90 | 0.90 | 76 | 1014.9 |
| 20260902174605 | 82 | 283 | 0.0 | 4.0 | 0.00 | 0.90 | 0.90 | 77 | 1014.9 |
| 20260902174057 | 82 | 108 | 1.0 | 6.0 | 0.00 | 0.90 | 0.90 | 78 | 1015.0 |
| 20260902173557 | 82 | 215 | 2.0 | 6.0 | 0.00 | 0.90 | 0.90 | 77 | 1015.1 |
| 20260902173109 | 81 | 250 | 1.0 | 7.0 | 0.00 | 0.90 | 0.90 | 78 | 1015.2 |
| 20260902172556 | 81 | 151 | 3.0 | 7.0 | 0.00 | 0.90 | 0.90 | 80 | 1015.2 |
| 20260902172056 | 81 | 302 | 1.0 | 7.0 | 0.00 | 0.90 | 0.90 | 80 | 1015.1 |
| 20260902171606 | 80 | 200 | 1.0 | 5.0 | 0.00 | 0.90 | 0.90 | 80 | 1015.1 |
| 20260902171057 | 79 | 235 | 0.0 | 5.0 | 0.00 | 0.90 | 0.90 | 81 | 1015.2 |
| 20260902170557 | 79 | 0 | 0.0 | 2.0 | 0.00 | 0.90 | 0.90 | 85 | 1015.2 |
| 20260902170103 | 78 | 0 | 0.0 | 8.0 | 0.00 | 0.90 | 0.90 | 87 | 1015.1 |
| 20260902165555 | 77 | 222 | 0.0 | 9.0 | 0.00 | 0.90 | 0.90 | 87 | 1015.2 |
| 20260902165056 | 76 | 105 | 1.0 | 9.0 | 0.00 | 0.90 | 0.90 | 87 | 1015.2 |
| 20260902164610 | 76 | 124 | 3.0 | 9.0 | 0.00 | 0.90 | 0.90 | 87 | 1015.4 |
| 20260902164055 | 75 | 0 | 1.0 | 9.0 | 0.00 | 0.90 | 0.90 | 91 | 1015.4 |
| 20260902163553 | 75 | 219 | 1.0 | 6.0 | 0.00 | 0.90 | 0.90 | 93 | 1015.3 |
| 20260902163104 | 74 | 117 | 0.0 | 4.0 | 0.00 | 0.90 | 0.90 | 95 | 1015.2 |
| 20260902162556 | 73 | 249 | 1.0 | 7.0 | 0.00 | 0.90 | 0.90 | 95 | 1015.2 |
| 20260902162056 | 73 | 115 | 0.0 | 7.0 | 0.00 | 0.90 | 0.90 | 95 | 1015.3 |
| 20260902161606 | 73 | 58 | 1.0 | 7.0 | 0.01 | 0.90 | 0.90 | 95 | 1015.4 |
| 20260902161055 | 73 | 200 | 0.0 | 12.0 | 0.02 | 0.90 | 0.90 | 96 | 1015.4 |
| 20260902160554 | 72 | 224 | 1.0 | 12.0 | 0.03 | 0.90 | 0.90 | 96 | 1015.5 |
| 20260902160121 | 72 | 0 | 0.0 | 4.0 | 0.05 | 0.90 | 0.90 | 97 | 1015.4 |
| 20260902155555 | 71 | 221 | 0.0 | 4.0 | 0.06 | 0.90 | 0.90 | 97 | 1015.5 |
| 20260902155057 | 71 | 0 | 0.0 | 3.0 | 0.08 | 0.90 | 0.90 | 97 | 1015.4 |
| 20260902154605 | 70 | 0 | 0.0 | 3.0 | 0.10 | 0.90 | 0.90 | 97 | 1015.5 |
| 20260902154057 | 69 | 100 | 0.0 | 1.0 | 0.12 | 0.90 | 0.90 | 97 | 1015.8 |
| 20260902153557 | 69 | 0 | 0.0 | 1.0 | 0.13 | 0.90 | 0.90 | 96 | 1016.0 |
| 20260902153104 | 69 | 103 | 0.0 | 1.0 | 0.15 | 0.90 | 0.90 | 96 | 1016.1 |
| 20260902152553 | 68 | 0 | 0.0 | 1.0 | 0.17 | 0.90 | 0.90 | 96 | 1016.2 |
| 20260902152055 | 68 | 0 | 0.0 | 1.0 | 0.19 | 0.90 | 0.90 | 96 | 1016.4 |
| 20260902151614 | 68 | 241 | 0.0 | 1.0 | 0.47 | 0.89 | 0.89 | 96 | 1016.5 |
| 20260902151053 | 68 | 0 | 0.0 | 1.0 | 0.62 | 0.88 | 0.88 | 96 | 1016.8 |
| 20260902150554 | 68 | 0 | 0.0 | 0.0 | 0.68 | 0.86 | 0.86 | 96 | 1016.7 |
| 20260902150116 | 68 | 0 | 0.0 | 1.0 | 0.69 | 0.85 | 0.85 | 96 | 1016.7 |
| 20260902145557 | 68 | 0 | 0.0 | 1.0 | 0.69 | 0.84 | 0.84 | 96 | 1017.0 |
| 20260902145056 | 68 | 0 | 0.0 | 0.0 | 0.68 | 0.82 | 0.82 | 96 | 1017.4 |
| 20260902144604 | 68 | 0 | 0.0 | 0.0 | 0.67 | 0.80 | 0.80 | 96 | 1017.8 |
| 20260902144054 | 68 | 0 | 0.0 | 2.0 | 0.67 | 0.78 | 0.78 | 96 | 1017.7 |
| 20260902143556 | 68 | 0 | 0.0 | 2.0 | 0.67 | 0.77 | 0.77 | 96 | 1017.7 |
| 20260902143110 | 68 | 0 | 0.0 | 3.0 | 0.67 | 0.75 | 0.75 | 96 | 1017.6 |
| 20260902142556 | 68 | 0 | 0.0 | 4.0 | 0.67 | 0.73 | 0.73 | 96 | 1017.9 |
| 20260902142101 | 68 | 0 | 1.0 | 7.0 | 0.65 | 0.70 | 0.70 | 96 | 1017.9 |
| 20260902141600 | 68 | 326 | 3.0 | 7.0 | 0.38 | 0.41 | 0.41 | 96 | 1018.6 |
| 20260902141059 | 68 | 331 | 1.0 | 5.0 | 0.25 | 0.26 | 0.26 | 96 | 1018.2 |
| 20260902140556 | 68 | 0 | 0.0 | 0.0 | 0.18 | 0.18 | 0.18 | 96 | 1017.3 |
| 20260902140107 | 68 | 0 | 0.0 | 0.0 | 0.16 | 0.16 | 0.16 | 96 | 1017.0 |
| 20260902135556 | 68 | 0 | 0.0 | 0.0 | 0.15 | 0.15 | 0.15 | 96 | 1016.5 |
| 20260902135056 | 68 | 0 | 0.0 | 0.0 | 0.14 | 0.14 | 0.14 | 96 | 1016.3 |
| 20260902134610 | 67 | 0 | 0.0 | 0.0 | 0.13 | 0.13 | 0.13 | 96 | 1016.5 |
| 20260902134055 | 67 | 0 | 0.0 | 0.0 | 0.11 | 0.11 | 0.11 | 96 | 1016.5 |
| 20260902133556 | 67 | 0 | 0.0 | 0.0 | 0.10 | 0.10 | 0.10 | 96 | 1016.3 |
| 20260902133108 | 67 | 0 | 0.0 | 0.0 | 0.08 | 0.08 | 0.08 | 96 | 1016.3 |
| 20260902132557 | 67 | 0 | 0.0 | 0.0 | 0.06 | 0.06 | 0.06 | 96 | 1016.7 |
| 20260902132056 | 67 | 0 | 0.0 | 0.0 | 0.05 | 0.05 | 0.05 | 96 | 1016.7 |
| 20260902131607 | 67 | 0 | 0.0 | 0.0 | 0.03 | 0.03 | 0.03 | 96 | 1016.8 |
| 20260902131059 | 67 | 0 | 0.0 | 0.0 | 0.01 | 0.01 | 0.01 | 96 | 1016.9 |
| 20260902130555 | 67 | 0 | 0.0 | 0.0 | 0.00 | 0.00 | 0.00 | 96 | 1016.8 |
| 20260902130104 | 67 | 0 | 0.0 | 0.0 | 0.00 | 0.00 | 0.00 | 96 | 1016.8 |
| 20260902125559 | 67 | 0 | 0.0 | 0.0 | 0.00 | 0.00 | 0.00 | 96 | 1016.8 |
| 20260902125058 | 67 | 0 | 0.0 | 0.0 | 0.00 | 0.00 | 0.00 | 96 | 1016.9 |
| 20260902124603 | 67 | 0 | 0.0 | 0.0 | 0.00 | 0.00 | 0.00 | 96 | 1016.8 |
| 20260902124058 | 67 | 0 | 0.0 | 0.0 | 0.00 | 0.00 | 0.00 | 96 | 1016.6 |
| 20260902123555 | 67 | 0 | 0.0 | 0.0 | 0.00 | 0.00 | 0.00 | 96 | 1016.4 |
| 20260902123104 | 67 | 0 | 0.0 | 0.0 | 0.00 | 0.00 | 0.00 | 96 | 1016.3 |
| 20260902122556 | 67 | 0 | 0.0 | 0.0 | 0.00 | 0.00 | 0.00 | 96 | 1016.3 |
| 20260902122056 | 67 | 0 | 0.0 | 0.0 | 0.00 | 0.00 | 0.00 | 96 | 1016.3 |
| 20260902121601 | 67 | 0 | 0.0 | 0.0 | 0.00 | 0.00 | 0.00 | 96 | 1016.3 |
| 20260902121056 | 67 | 0 | 0.0 | 0.0 | 0.00 | 0.00 | 0.00 | 96 | 1016.3 |
| 20260902120553 | 67 | 0 | 0.0 | 0.0 | 0.00 | 0.00 | 0.00 | 96 | 1016.2 |
| 20260902120104 | 67 | 0 | 0.0 | 0.0 | 0.00 | 0.00 | 0.00 | 96 | 1016.0 |
| 20260902115556 | 67 | 0 | 0.0 | 0.0 | 0.00 | 0.00 | 0.00 | 96 | 1015.6 |
| 20260902115056 | 67 | 0 | 0.0 | 0.0 | 0.00 | 0.00 | 0.00 | 96 | 1015.7 |
| 20260902114603 | 67 | 0 | 0.0 | 0.0 | 0.00 | 0.00 | 0.00 | 96 | 1015.7 |
| 20260902114057 | 67 | 0 | 0.0 | 0.0 | 0.00 | 0.00 | 0.00 | 96 | 1015.5 |
| 20260902113556 | 67 | 0 | 0.0 | 0.0 | 0.00 | 0.00 | 0.00 | 96 | 1015.5 |
| 20260902113106 | 67 | 0 | 0.0 | 0.0 | 0.00 | 0.00 | 0.00 | 96 | 1015.5 |
| 20260902112553 | 66 | 0 | 0.0 | 1.0 | 0.00 | 0.00 | 0.00 | 96 | 1015.6 |
| 20260902112059 | 66 | 0 | 0.0 | 2.0 | 0.00 | 0.00 | 0.00 | 96 | 1015.5 |
| 20260902111602 | 66 | 105 | 0.0 | 2.0 | 0.00 | 0.00 | 0.00 | 96 | 1015.4 |
| 20260902111057 | 66 | 0 | 0.0 | 1.0 | 0.00 | 0.00 | 0.00 | 96 | 1015.4 |
| 20260902110557 | 66 | 0 | 0.0 | 1.0 | 0.00 | 0.00 | 0.00 | 96 | 1015.4 |
| 20260902110104 | 66 | 0 | 0.0 | 2.0 | 0.00 | 0.00 | 0.00 | 96 | 1015.4 |
| 20260902105559 | 66 | 0 | 0.0 | 2.0 | 0.00 | 0.00 | 0.00 | 96 | 1015.5 |
| 20260902105056 | 66 | 130 | 0.0 | 1.0 | 0.00 | 0.00 | 0.00 | 96 | 1015.4 |
| 20260902104624 | 66 | 0 | 0.0 | 1.0 | 0.00 | 0.00 | 0.00 | 96 | 1015.3 |
| 20260902104056 | 66 | 0 | 0.0 | 1.0 | 0.00 | 0.00 | 0.00 | 96 | 1015.4 |